Regional Weather Roundup
Issued by NWS

Home | Current Version | Previous Version | Text Only | Print | Product List | Glossary On
Versions: 1 2 3 4 5 6 7 8 9 10 11 12 13 14 15 16 17 18 19 20 21 22 23 24 25 26 27 28 29 30 31 32 33 34 35 36 37 38 39 40 41 42 43 44 45 46 47 48 49 50
000
ASUS45 KTFX 200110
RWRMT
MONTANA REGIONAL WEATHER ROUNDUP
NATIONAL WEATHER SERVICE GREAT FALLS MT
600 PM MST THU JAN 19 2017

NOTE: "FAIR" INDICATES FEW OR NO CLOUDS BELOW 12000 FEET WITH NO
SIGNIFICANT WEATHER AND/OR OBSTRUCTIONS TO VISIBILITY.

MTZ001>007-043-200200-
WEST OF THE DIVIDE

CITY           SKY/WX    TMP DP  RH WIND       PRES   REMARKS
KALISPELL      CLOUDY    33  32  96 CALM      29.55R FOG
MISSOULA       CLOUDY    34  34 100 SE5       29.59S FOG
BUTTE          CLOUDY    32  23  69 CALM      29.53R
MULLAN PASS    SNOW      29  26  89 CALM      29.53R VSB 1/2
ANACONDA         N/A     37  30  75 SW13      29.53R WCI  29
DEER LODGE       N/A     36  32  87 CALM      29.57R
EUREKA           N/A     39  30  70 SE9       29.54R
HAMILTON         N/A     36  34  93 E3        29.58R
RONAN            N/A     32  29  89 CALM      29.64R
$$

MTZ008-052>055-200200-
SOUTHWEST MONTANA

CITY           SKY/WX    TMP DP  RH WIND       PRES   REMARKS
BOZEMAN        CLOUDY    33  27  78 S7        29.54R WCI  27
DILLON         CLOUDY    36  23  59 SW13      29.55S WCI  27
W YELLOWSTONE  CLOUDY    27  25  93 SW13G18   29.63S WCI  16
ENNIS          CLOUDY    32  25  74 S15       29.62R WCI  22
TWIN BRIDGES     N/A     30  23  75 E6        29.61R WCI  24
$$

MTZ009-010-012-014-046-048-049-054-200200-
EAST SLOPES AND CENTRAL MONTANA

CITY           SKY/WX    TMP DP  RH WIND       PRES   REMARKS
CUT BANK       CLOUDY    37  27  67 W9        29.45R WCI  30
GREAT FALLS    CLOUDY    39  28  64 S12       29.46S WCI  32
MALMSTROM AFB  CLOUDY    38  30  72 SW13      29.47R WCI  31
HELENA         CLOUDY    35  27  72 W6        29.52R WCI  30
AUGUSTA        MOCLDY    38  26  60 W12       29.46R WCI  31
BOWMANS CRNR   MOCLDY    35  29  76 S8        29.45R WCI  29
CHOTEAU          N/A     39  27  60 W6        29.48R
POWER          MOCLDY    34  30  85 W3        29.46R
RAYNESFORD     MOCLDY    41  28  58 CALM      29.48R
ULM            MOCLDY    36  30  79 MISG      29.48R
$$

MTZ011-013-016-021-045-047-050-051-200200-
NORTH CENTRAL MONTANA

CITY           SKY/WX    TMP DP  RH WIND       PRES   REMARKS
HAVRE          CLOUDY    36  32  85 SW8       29.44R WCI  30
LEWISTOWN      CLOUDY    40  30  67 S10       29.48S
CHINOOK          N/A     39  34  81 CALM      29.45R
DENTON         CLOUDY    39  31  73 SW10      29.44R
FORT BENTON      N/A     43  30  61 MISG      29.47R
GEYSER         CLOUDY    39  29  66 SW9       29.47R
GRASS RANGE    CLOUDY    41  30  66 SW13      29.45R
JUDITH GAP     CLOUDY    38  30  74 SE7       29.49R
ROY            CLOUDY    40  32  73 MISG      29.45R
STANFORD       CLOUDY    39  30  70 CALM      29.47R
WINIFRED       CLOUDY    42  30  63 W6        29.46R
$$

MTZ017>020-022>027-061-062-200200-
NORTHEAST MONTANA

CITY           SKY/WX    TMP DP  RH WIND       PRES   REMARKS
GLASGOW        PTCLDY    27  22  81 S7        29.45R WCI  19
JORDAN           N/A     36  31  82 CALM      29.45S
SIDNEY         CLOUDY    22  20  92 SW5       29.45S
WOLF POINT     CLOUDY    24  19  81 SW6       29.45S WCI  17
PLENTYWOOD       N/A     27  21  80 E5        29.42S
POPLAR           N/A     25  19  80 CALM      29.46S
$$

MTZ028>42-056>058-200200-
SOUTHCENTRAL AND SOUTHEAST MONTANA

CITY           SKY/WX    TMP DP  RH WIND       PRES   REMARKS
BAKER          CLOUDY    29  20  69 W9        29.46R WCI  20
BILLINGS       CLOUDY    37  26  64 W10       29.51R WCI  30
LIVINGSTON     CLOUDY    41  22  46 SW23G29   29.52R
MILES CITY     CLOUDY    27  18  69 S8        29.48R WCI  19
BIG TIMBER     MOCLDY    41  25  52 W17       29.53R
FORSYTH          N/A     34  23  64 CALM      29.49R
HARLOWTON      CLOUDY    39  28  64 W7        29.50R
ROUNDUP          N/A     40  28  62 SW8       29.46
$$

REGIONAL REPORTS...DAKOTAS

CITY           SKY/WX    TMP DP  RH WIND       PRES   REMARKS
WILLISTON      CLOUDY    21  19  92 CALM      29.45R
MINOT          CLOUDY    28  25  88 SE5       29.44R
DICKINSON      CLOUDY    26  20  77 SW6       29.42R WCI  19
BEACH            N/A     30  23  74 W10       29.46F WCI  21
CROSBY           N/A     25  23  93 SW9       29.45S WCI  15
TIOGA            N/A     23  23 100 W5        29.45S
WATFORD CITY     N/A     21  18  86 CALM      29.45R
BISMARCK       CLOUDY    15  12  88 SE5       29.50R
GRAND FORKS    FOG       33  31  92 S15       29.55S VSB 1/2 WCI  23
FARGO          FOG       36  35  96 S18       29.60R VSB 1/2 WCI  26
BUFFALO SD       N/A     32  24  72 W9        29.39S WCI  24
RAPID CITY     CLOUDY    31  22  69 NW5       29.46R
$$

REGIONAL REPORTS...WYOMING/IDAHO/WASHINGTON

CITY           SKY/WX    TMP DP  RH WIND       PRES   REMARKS
GILLETTE       CLOUDY    35  25  66 N6        29.49R WCI  30
SHERIDAN       CLOUDY    23  16  74 VRB3      29.50S
BUFFALO WY     CLOUDY    37  22  54 NW9       29.51R WCI  30
YELLOWSTONE LA   N/A     24  20  84 VRB5      29.64R
IDAHO FALLS    CLOUDY    31  30  96 SW8       29.68S WCI  23
SALMON         CLOUDY    27  25  93 E6        29.62R WCI  20
BOISE          CLOUDY    36  31  82 SE7       29.68S WCI  30
SPOKANE        MOCLDY    37  31  78 S7        29.58R WCI  32
$$

REGIONAL REPORTS...ALBERTA

CITY           SKY/WX    TMP DP  RH WIND       PRES   REMARKS
CALGARY        PTCLDY    39  19  45 NW9       29.29R
LETHBRIDGE     MOCLDY    37  28  70 W5        29.39R
MEDICINE HAT   MOCLDY    37  30  75 SW5       29.35R
WATERTON GATE    N/A     37  21  52 SW17G28     N/A  WCI  28
CARDSTON         N/A     41  21  45 SW15G21     N/A
MILK RIVER       N/A     36  30  80 W2          N/A
ONEFOUR          N/A     41  30  65 W2          N/A
$$

REGIONAL REPORTS...SASKATCHEWAN

CITY           SKY/WX    TMP DP  RH WIND       PRES   REMARKS
SWIFT CURRENT  CLOUDY    39  32  75 SW14      29.35R WCI  31
REGINA         CLOUDY    32  28  86 SE3       29.39S
SASKATOON      MOCLDY    37  32  81 S5        29.32S
CYPRESS HILLS    N/A     39  23  52 W7          N/A
VAL MARIE        N/A     37  32  81 S3          N/A
ASSINIBOIA       N/A     32  30  93 S7          N/A  WCI  26
$$



USA.gov is the U.S. government's official web portal to all federal, state and local government web resources and services.